Location: Unspecified
(49.2170°N, 0.0000°E)
Time: 06:00:50
(UTC+00:00)

Courier 1B Rocket - Pass Details

Date: 21 January 2021
Orbit: 920 x 1202 km, 28.3° (Epoch: 05 March)

Event Time Altitude Azimuth Distance (km) Brightness Sun altitude
Rises 08:44:24 0° 221° (SW) 3,867 8.1 7.1°
Reaches altitude 10° 08:49:01 10° 194° (SSW) 2,979 8.0 7.7°
Maximum altitude 08:51:56 13° 171° (S) 2,816 8.4 8.0°
Drops below altitude 10° 08:54:55 10° 147° (SSE) 3,052 9.7 8.4°
Sets 08:59:46 0° 121° (ESE) 4,060 10.1 8.9°
